Regional Weather Roundup
Issued by NWS

Home | Current Version | Previous Version | Text Only | Print | Product List | Glossary Off
Versions: 1 2 3 4 5 6 7 8 9 10 11 12 13 14 15 16 17 18 19 20 21 22 23 24 25 26 27 28 29 30 31 32 33 34 35 36 37 38 39 40 41 42 43 44 45 46 47 48 49 50

000
ASUS44 KMEG 240710
RWRTN
TENNESSEE HOURLY STATE WEATHER ROUNDUP
NATIONAL WEATHER SERVICE MEMPHIS TN
200 AM CDT FRI OCT 24 2014

TNZ002-004-019-021-049-052-054-088>092-240800-
WEST TENNESSEE

CITY           SKY/WX    TMP DP  RH WIND       PRES   REMARKS
MEMPHIS INTL   PTCLDY    53  47  79 CALM      30.14R
NWS MEMPHIS      N/A     48 N/A N/A MISG        N/A
JACKSON        PTCLDY    44  42  93 CALM      30.13S
DYERSBURG      CLEAR     45  34  65 CALM      30.15S
UNION CITY     CLEAR     45  43  93 CALM      30.12S
PARIS          CLEAR     41  39  93 CALM      30.12S
HUNTINGDON     PTCLDY    44  42  93 CALM      30.13S
LEXINGTON      CLEAR     46  45  93 CALM      30.11R
SAVANNAH       CLEAR     46  45  93 CALM      30.13R
$$

TNZ008-025-027-028-033-062-065-066-240800-
NORTH MIDDLE TENNESSEE

CITY           SKY/WX    TMP DP  RH WIND       PRES   REMARKS
NASHVILLE      CLOUDY    50  46  86 W5        30.11R
CLARKSVILLE    CLOUDY    48  46  93 SW3       30.11S
SMYRNA         CLOUDY    47  45  93 CALM      30.12R
COOKEVILLE     CLEAR     45  45 100 CALM      30.09F
CROSSVILLE     CLOUDY    47  41  80 NE3       30.09F
$$

TNZ061-075-076-078-094-096-097-240800-
SOUTH MIDDLE TENNESSEE

CITY           SKY/WX    TMP DP  RH WIND       PRES   REMARKS
FAYETTEVILLE   CLEAR     46  43  87 N6        30.09F
TULLAHOMA      CLEAR     45  43  93 S3        30.11S
WINCHESTER     CLEAR     45  45 100 CALM      30.11R
MCMINNVILLE    CLEAR     46  46 100 CALM      30.09F
COLUMBIA         N/A    N/A N/A N/A CALM      30.09S
SHELBYVILLE    CLEAR     46  45  93 CALM      30.11R
$$

TNZ017-018-042-046-047-240800-
NORTHEAST TENNESSEE

CITY           SKY/WX    TMP DP  RH WIND       PRES   REMARKS
TRI CITIES     PTCLDY    38  37  97 N3        30.13S FOG
ELIZABETHTON   SUNNY     36  36 100 CALM      30.13S
$$

TNZ012-013-036-069-073-074-240800-
CENTRAL EAST TENNESSEE

CITY           SKY/WX    TMP DP  RH WIND       PRES   REMARKS
KNOXVILLE      CLOUDY    48  43  82 NE10      30.08F
OAK RIDGE      CLOUDY    48  45  89 CALM      30.12R
GATLINBURG     SUNNY     41  39  93 CALM      30.09F
MORRISTOWN     SUNNY     45  43  93 E6        30.11S
$$

TNZ083-085-099-240800-
SOUTHEAST TENNESSEE

CITY           SKY/WX    TMP DP  RH WIND       PRES   REMARKS
CHATTANOOGA    CLOUDY    51  47  86 CALM      30.09S
$$

SKY/WX REPORTED AS FAIR MEANS FEW OR NO CLOUDS BELOW
12 THOUSAND FEET.




USA.gov is the U.S. government's official web portal to all federal, state and local government web resources and services.